SCP
0 0 0 0 0 0 0 0 0 0 0 0 0 0 0 0 0 0 0 0 0 0 -0 0 0 0 0 0 0 0 0 0 0 -0 0 0 -0 0 0 -0 -0 -0 -0
0 0 0 0 0 0 0 0 0 0 0 0 0 0 0 0 0 0 0 0 0 0 0 0 0 0 0 0 0 0 0 0 0 0 -0 -0 0 0 0 -0 -0 -0 -0
0 -0 0 0 0 0 0 0 0 0 0 0 0 0 0 0 0 0 0 0 0 0 0 0 0 0 0 0 0 0 0 0 0 0 0 0 0 -0 -0 -0 -0 -0 -0
-0 -0 0 0 0 0 0 0 0 0 0 0 0 0 0 0 0 0 0 0 0 0 0 0 0 0 0 1 0 0 0 -0 -0 -0 0 0 0 -0 -0 -0 -0 -0 -0
-0 0 0 0 0 0 0 0 0 0 0 0 0 0 0 0 0 0 0 0 0 0 0 0 0 0 0 0 0 0 0 -0 -0 -0 0 0 0 0 -0 -0 -0 0 -0
0 0 -0 0 0 0 0 0 0 0 0 0 0 1 1 0 0 0 0 0 0 0 0 0 0 0 0 0 0 0 -0 -0 -0 -0 0 0 0 0 0 -0 -0 -0 -0
0 0 0 0 0 0 0 0 0 0 0 0 0 0 0 0 1 0 0 -0 0 0 0 0 0 0 0 0 0 0 -0 -0 0 0 0 0 0 0 -0 -0 -0 -0 -0
0 0 0 0 0 0 0 0 0 0 0 1 1 1 0 1 1 0 0 0 0 0 0 0 0 0 0 0 0 0 -0 0 0 0 0 0 0 0 0 -0 -0 0 0
1 1 1 1 1 1 0 0 1 0 1 1 1 1 1 0 0 0 0 0 0 0 0 0 0 0 0 0 0 0 0 0 0 0 0 0 0 0 0 -0 0 0 0
1 1 1 1 1 1 1 1 1 0 0 1 1 1 1 0 0 0 0 0 0 0 0 0 0 0 0 0 0 0 0 0 0 0 0 0 0 0 0 0 0 0 0
1 1 1 1 1 1 1 1 1 1 1 1 1 1 1 1 0 1 0 0 0 0 -0 -0 0 0 -0 0 0 0 0 0 0 0 0 0 0 0 0 0 0 0 0
1 1 1 1 1 1 1 1 1 1 1 1 1 1 1 1 1 1 0 1 0 0 0 -0 0 0 0 0 0 0 0 0 0 0 0 0 0 0 0 0 0 0 0
0 1 1 1 1 1 1 2 2 2 1 1 1 1 1 1 1 1 1 1 1 0 0 0 0 0 0 0 0 0 0 0 0 0 0 0 0 0 0 0 0 0 0
0 1 1 1 1 1 2 2 2 2 2 1 1 1 2 1 1 1 2 1 0 0 0 0 0 0 0 0 0 0 0 0 0 0 0 0 0 0 0 0 0 0 0
0 0 1 1 1 1 1 2 3 2 2 1 1 1 2 1 2 1 1 1 0 1 0 0 0 0 -0 0 0 0 0 0 0 0 0 0 0 0 0 0 0 0 0
0 0 1 1 1 1 1 2 3 3 2 1 2 2 2 2 2 1 1 1 1 1 0 0 0 0 0 0 0 0 0 0 0 0 0 0 0 0 0 0 0 0 0
0 0 0 0 1 1 1 2 2 2 3 2 2 2 1 2 2 1 1 1 1 1 0 0 0 0 0 0 0 0 0 0 0 0 0 0 0 0 0 0 0 0 0
0 0 0 0 0 1 1 1 2 2 3 2 3 2 1 2 1 1 1 1 1 0 0 0 0 0 0 0 0 0 0 0 0 0 0 0 0 0 0 0 0 0 0
0 0 0 0 0 1 1 2 2 1 2 2 2 1 1 1 1 2 1 1 1 1 0 0 0 0 0 0 0 0 0 0 0 0 0 0 0 0 0 0 0 0 0
0 0 0 0 0 0 2 2 2 2 2 1 2 1 1 1 1 1 1 1 1 0 0 0 0 0 0 0 0 0 0 0 0 0 0 0 0 0 0 0 0 0 0
0 0 0 0 0 0 0 1 2 2 3 1 1 0 1 1 1 1 1 0 0 0 0 0 0 0 0 0 0 0 0 0 0 0 0 0 0 0 0 0 0 0 0
0 0 0 0 0 0 0 1 2 2 1 1 1 1 1 1 1 1 1 0 0 0 0 0 0 0 0 0 0 0 0 0 0 0 0 0 0 0 0 0 0 0 0
0 0 0 0 0 0 0 1 2 1 1 0 0 0 0 0 1 0 0 0 0 0 0 0 0 0 0 0 0 0 0 0 0 0 0 0 0 0 0 0 0 0 -0
0 0 1 0 0 0 0 1 1 1 1 1 0 0 0 0 0 0 1 0 0 0 0 0 0 0 0 0 0 0 0 0 0 0 0 0 0 0 0 0 0 0 0
0 0 0 0 1 1 0 1 1 1 0 0 1 0 0 0 0 1 1 0 0 0 0 0 0 0 0 0 0 0 0 0 0 0 0 0 0 0 0 0 0 0 0
0 0 0 0 0 0 0 0 0 0 0 1 1 1 0 1 1 0 0 0 0 0 0 0 0 0 0 0 0 0 0 0 0 0 0 0 0 0 0 0 0 0 0
Wind_Speed_500mb
10 11 11 7 3 6 12 15 16 16 19 20 22 23 22 23 21 21 22 25 28 29 27 27 29 29 28 26 26 27 28 28 29 30 32 33 35 36 35 31 34 38 37
19 9 10 8 6 5 9 13 15 18 20 21 23 24 25 26 25 26 27 28 29 28 27 28 29 29 28 28 25 24 23 24 28 28 28 31 35 35 36 35 31 32 26
19 9 6 5 3 4 8 14 15 17 19 20 23 23 26 28 28 28 29 29 29 28 31 30 29 30 31 30 26 20 19 24 24 24 33 26 28 28 27 21 16 22 22
20 11 8 4 3 3 6 11 15 16 16 19 23 28 27 31 30 29 28 29 29 26 29 31 30 25 28 25 22 19 19 23 29 29 24 17 21 22 18 17 19 18 20
23 16 13 11 6 5 9 13 16 18 17 20 24 29 30 32 30 30 25 26 27 23 30 33 32 28 27 22 18 17 23 32 36 28 26 27 19 22 22 24 26 27 27
24 20 14 16 9 7 11 15 18 19 19 20 23 27 32 33 33 33 31 18 13 30 20 22 22 25 25 21 19 17 28 37 36 21 19 15 18 26 29 29 26 26 23
24 25 19 19 15 11 14 18 22 22 20 21 26 29 33 34 38 41 34 25 41 31 25 15 22 21 23 24 21 22 27 30 20 17 20 23 22 25 24 23 22 22 23
27 27 26 24 21 17 17 21 24 25 24 23 27 30 35 40 40 41 30 21 29 14 26 22 25 24 27 27 25 24 30 29 16 18 24 21 20 24 24 22 20 22 22
30 34 35 30 28 25 22 25 28 29 28 26 25 31 37 42 42 47 32 32 24 25 23 28 33 29 29 32 28 26 31 30 22 20 22 18 25 24 25 21 20 22 21
35 38 35 36 34 32 29 29 32 33 33 31 30 38 42 41 45 44 36 43 22 27 27 34 34 31 34 33 31 28 26 32 15 21 20 19 28 24 26 24 23 24 22
31 37 38 42 41 39 36 34 35 37 37 36 37 41 42 43 46 45 41 45 28 29 32 31 33 35 33 34 30 28 26 22 13 19 22 22 22 25 29 29 28 29 29
31 34 38 43 46 43 43 41 40 42 44 46 47 47 47 48 44 38 43 47 36 40 37 33 32 30 31 34 32 29 26 19 22 19 22 24 26 25 27 30 30 30 23
33 35 38 40 48 47 48 47 44 41 43 46 47 45 50 45 44 45 50 49 46 44 45 38 32 32 32 35 33 29 24 26 23 22 27 24 24 25 27 29 27 25 25
34 35 40 40 43 49 43 53 52 47 42 42 45 50 52 55 60 47 59 49 48 50 49 44 33 32 34 32 32 32 32 29 27 16 24 26 25 26 26 25 25 28 26
32 35 38 40 43 42 47 54 60 50 48 47 43 50 55 50 62 50 50 50 48 55 58 50 37 45 46 40 34 42 33 27 30 23 24 32 26 25 26 26 24 25 26
34 31 36 41 43 44 51 58 64 62 49 50 51 55 58 55 56 54 58 65 56 62 59 50 51 55 44 48 50 45 34 29 30 25 27 34 29 25 27 27 25 23 24
41 34 31 35 40 46 48 51 63 68 66 58 56 59 58 61 61 56 60 59 68 66 63 57 64 53 55 44 53 45 37 33 33 32 26 29 34 28 28 26 27 29 25
38 38 39 36 40 46 49 53 60 68 74 68 61 61 63 61 61 61 64 62 67 64 66 64 54 57 55 47 51 47 38 35 37 35 31 29 29 28 34 30 28 28 26
38 38 40 42 45 52 50 51 57 61 74 80 66 56 66 63 65 61 61 62 69 74 55 57 62 60 53 48 52 51 42 37 37 35 33 28 25 26 28 36 34 29 26
28 35 40 46 47 52 52 53 54 62 60 79 85 58 57 59 69 68 69 67 68 86 73 73 67 59 55 57 49 53 44 45 39 37 36 33 29 30 27 29 34 30 27
24 28 37 40 47 51 52 54 61 65 74 69 78 69 62 63 60 64 64 68 70 78 77 78 85 72 64 62 59 57 48 46 44 41 40 35 34 33 30 28 31 26 26
21 23 30 35 36 42 50 51 56 70 81 75 73 71 69 63 62 53 66 71 70 66 75 77 78 85 74 70 75 70 45 42 44 43 43 42 38 35 36 32 30 28 24
13 18 22 27 31 35 42 47 60 66 70 69 77 76 70 68 59 52 56 65 80 74 92 81 85 101 84 79 77 80 51 38 53 49 44 43 44 39 36 36 35 33 32
16 20 18 17 23 31 37 46 60 67 68 69 72 73 66 58 49 54 55 63 75 80 80 84 89 100 89 81 79 76 54 55 63 45 45 51 41 43 41 37 37 35 32
19 21 19 13 18 27 33 44 47 61 49 38 45 50 69 57 50 51 56 63 70 85 73 108 97 107 101 87 93 76 68 46 64 49 53 52 51 42 40 38 35 37 40
19 24 23 19 16 29 30 52 47 61 43 47 43 52 43 49 54 58 57 62 65 73 73 109 94 117 118 90 89 80 73 55 68 50 51 54 56 49 43 41 40 32 25
Wind_Direction_500mb
152 153 97 70 353 262 241 225 226 216 201 197 201 210 209 209 200 192 183 173 168 168 167 172 165 165 160 154 145 137 138 142 141 137 129 124 121 115 110 106 108 114 115
155 139 74 55 30 294 226 210 214 210 203 196 201 208 212 208 199 191 186 181 176 173 172 171 166 166 162 150 144 134 135 137 134 130 128 128 130 125 119 127 133 116 118
150 144 102 95 169 250 211 193 196 199 200 200 205 209 208 204 204 194 190 185 180 176 175 173 170 168 160 157 150 143 139 137 124 109 103 121 135 135 134 137 123 123 121
159 149 148 127 214 229 187 186 184 185 198 209 208 205 207 204 204 197 194 188 183 180 179 174 167 168 166 159 153 145 141 132 113 116 119 124 128 141 146 141 126 129 128
168 169 189 199 213 221 190 185 188 180 188 206 209 206 199 203 203 196 191 201 184 184 175 170 168 171 171 166 160 148 141 125 114 117 126 117 130 131 133 127 127 123 128
172 174 203 206 198 200 194 192 198 191 188 195 201 205 207 205 199 185 180 257 221 311 168 165 171 174 174 172 168 153 143 125 117 133 149 180 149 143 139 139 134 136 137
181 187 218 209 202 188 203 197 204 204 203 201 201 205 211 209 204 200 202 323 242 271 329 189 189 184 186 180 172 155 148 134 129 142 137 173 164 152 155 156 160 161 158
185 199 230 218 213 202 205 201 206 210 211 211 209 209 210 213 208 200 220 246 192 260 205 176 212 201 189 182 174 164 152 143 114 150 163 185 181 170 175 171 173 166 164
193 215 230 225 220 216 209 210 207 209 217 215 214 219 221 219 216 210 226 197 212 187 192 187 213 205 197 184 177 170 161 155 139 161 145 201 201 190 185 188 191 187 189
204 219 223 231 228 225 218 213 213 210 212 217 213 216 224 226 220 217 225 202 218 216 208 200 216 208 196 183 181 172 167 151 143 165 166 192 186 189 183 196 202 200 205
212 221 220 234 232 230 224 221 216 212 211 214 214 218 225 221 222 223 226 212 221 218 224 232 217 203 190 182 182 176 169 168 173 169 200 223 202 193 187 201 207 211 215
219 218 224 228 236 227 228 226 219 218 212 212 214 216 216 216 219 212 213 213 227 221 225 217 207 201 195 188 184 177 163 179 172 179 220 228 201 174 174 193 197 198 188
228 224 218 222 234 228 229 229 220 215 214 215 214 213 219 214 218 217 212 221 223 217 211 208 201 203 189 179 188 181 171 172 172 188 222 211 167 171 171 174 171 168 170
231 223 222 216 227 233 222 227 230 215 211 215 215 215 223 215 218 220 216 217 214 213 209 206 201 226 187 178 186 179 168 173 172 184 221 188 167 172 163 164 173 169 158
233 227 222 220 222 223 221 232 232 216 225 212 217 223 218 216 223 219 211 220 215 211 211 212 205 199 186 182 182 190 168 176 171 178 176 171 171 179 169 163 171 169 161
234 229 225 221 221 232 228 236 234 225 221 227 213 222 224 219 221 218 218 215 213 217 215 209 219 194 188 179 184 186 177 177 172 175 186 173 175 183 172 170 169 171 168
233 231 230 232 224 226 242 235 235 236 220 221 219 217 224 227 225 218 224 224 223 223 215 237 202 201 185 186 183 169 179 176 172 167 173 179 178 185 177 181 176 177 172
242 242 244 244 234 232 226 249 234 236 234 223 225 226 223 226 230 231 229 235 231 220 220 211 198 191 187 179 185 178 179 177 173 171 170 172 173 180 182 187 184 185 177
247 250 250 246 243 239 232 226 249 241 234 231 221 230 231 227 231 234 236 239 232 224 231 211 190 186 184 186 189 175 178 176 176 174 178 173 168 186 188 188 189 190 177
259 256 253 251 243 237 237 227 226 241 245 230 229 219 233 227 231 233 238 239 235 235 233 225 208 182 193 190 185 175 178 185 175 181 179 174 182 187 186 218 191 187 184
259 262 257 257 256 241 231 224 220 223 231 230 227 220 233 237 230 233 236 238 232 233 226 232 216 191 193 192 186 175 180 181 178 183 177 181 188 187 189 207 196 193 200
267 272 269 254 252 239 228 225 223 220 225 226 223 217 220 229 240 234 227 228 230 225 229 218 215 196 194 192 180 170 165 179 182 187 183 179 193 193 197 201 195 192 225
309 302 291 256 246 235 222 217 218 225 230 224 228 227 226 233 233 232 226 222 226 230 219 230 221 199 197 196 192 179 165 183 180 188 189 178 196 195 199 203 201 201 202
329 331 323 274 246 236 220 223 223 221 215 220 222 226 227 232 231 222 223 225 230 231 227 228 219 201 194 194 190 188 182 182 176 177 190 188 192 196 200 204 205 200 206
335 334 329 306 258 238 218 215 222 216 209 228 221 232 226 229 223 220 225 227 234 229 233 226 220 210 196 196 191 189 187 190 189 183 184 191 194 202 202 200 202 202 213
333 340 332 319 278 243 232 212 219 212 204 211 204 212 213 217 218 220 229 238 236 238 240 217 219 207 194 198 191 191 191 190 181 187 185 190 194 198 201 202 210 209 205
Wind_Speed_850mb
10 11 11 7 3 6 12 15 16 16 19 20 22 23 22 23 21 21 22 25 28 29 27 27 29 29 28 26 26 27 28 28 29 30 32 33 35 36 35 31 34 38 37
19 9 10 8 6 5 9 13 15 18 20 21 23 24 25 26 25 26 27 28 29 28 27 28 29 29 28 28 25 24 23 24 28 28 28 31 35 35 36 35 31 32 26
19 9 6 5 3 4 8 14 15 17 19 20 23 23 26 28 28 28 29 29 29 28 31 30 29 30 31 30 26 20 19 24 24 24 33 26 28 28 27 21 16 22 22
20 11 8 4 3 3 6 11 15 16 16 19 23 28 27 31 30 29 28 29 29 26 29 31 30 25 28 25 22 19 19 23 29 29 24 17 21 22 18 17 19 18 20
23 16 13 11 6 5 9 13 16 18 17 20 24 29 30 32 30 30 25 26 27 23 30 33 32 28 27 22 18 17 23 32 36 28 26 27 19 22 22 24 26 27 27
24 20 14 16 9 7 11 15 18 19 19 20 23 27 32 33 33 33 31 18 13 30 20 22 22 25 25 21 19 17 28 37 36 21 19 15 18 26 29 29 26 26 23
24 25 19 19 15 11 14 18 22 22 20 21 26 29 33 34 38 41 34 25 41 31 25 15 22 21 23 24 21 22 27 30 20 17 20 23 22 25 24 23 22 22 23
27 27 26 24 21 17 17 21 24 25 24 23 27 30 35 40 40 41 30 21 29 14 26 22 25 24 27 27 25 24 30 29 16 18 24 21 20 24 24 22 20 22 22
30 34 35 30 28 25 22 25 28 29 28 26 25 31 37 42 42 47 32 32 24 25 23 28 33 29 29 32 28 26 31 30 22 20 22 18 25 24 25 21 20 22 21
35 38 35 36 34 32 29 29 32 33 33 31 30 38 42 41 45 44 36 43 22 27 27 34 34 31 34 33 31 28 26 32 15 21 20 19 28 24 26 24 23 24 22
31 37 38 42 41 39 36 34 35 37 37 36 37 41 42 43 46 45 41 45 28 29 32 31 33 35 33 34 30 28 26 22 13 19 22 22 22 25 29 29 28 29 29
31 34 38 43 46 43 43 41 40 42 44 46 47 47 47 48 44 38 43 47 36 40 37 33 32 30 31 34 32 29 26 19 22 19 22 24 26 25 27 30 30 30 23
33 35 38 40 48 47 48 47 44 41 43 46 47 45 50 45 44 45 50 49 46 44 45 38 32 32 32 35 33 29 24 26 23 22 27 24 24 25 27 29 27 25 25
34 35 40 40 43 49 43 53 52 47 42 42 45 50 52 55 60 47 59 49 48 50 49 44 33 32 34 32 32 32 32 29 27 16 24 26 25 26 26 25 25 28 26
32 35 38 40 43 42 47 54 60 50 48 47 43 50 55 50 62 50 50 50 48 55 58 50 37 45 46 40 34 42 33 27 30 23 24 32 26 25 26 26 24 25 26
34 31 36 41 43 44 51 58 64 62 49 50 51 55 58 55 56 54 58 65 56 62 59 50 51 55 44 48 50 45 34 29 30 25 27 34 29 25 27 27 25 23 24
41 34 31 35 40 46 48 51 63 68 66 58 56 59 58 61 61 56 60 59 68 66 63 57 64 53 55 44 53 45 37 33 33 32 26 29 34 28 28 26 27 29 25
38 38 39 36 40 46 49 53 60 68 74 68 61 61 63 61 61 61 64 62 67 64 66 64 54 57 55 47 51 47 38 35 37 35 31 29 29 28 34 30 28 28 26
38 38 40 42 45 52 50 51 57 61 74 80 66 56 66 63 65 61 61 62 69 74 55 57 62 60 53 48 52 51 42 37 37 35 33 28 25 26 28 36 34 29 26
28 35 40 46 47 52 52 53 54 62 60 79 85 58 57 59 69 68 69 67 68 86 73 73 67 59 55 57 49 53 44 45 39 37 36 33 29 30 27 29 34 30 27
24 28 37 40 47 51 52 54 61 65 74 69 78 69 62 63 60 64 64 68 70 78 77 78 85 72 64 62 59 57 48 46 44 41 40 35 34 33 30 28 31 26 26
21 23 30 35 36 42 50 51 56 70 81 75 73 71 69 63 62 53 66 71 70 66 75 77 78 85 74 70 75 70 45 42 44 43 43 42 38 35 36 32 30 28 24
13 18 22 27 31 35 42 47 60 66 70 69 77 76 70 68 59 52 56 65 80 74 92 81 85 101 84 79 77 80 51 38 53 49 44 43 44 39 36 36 35 33 32
16 20 18 17 23 31 37 46 60 67 68 69 72 73 66 58 49 54 55 63 75 80 80 84 89 100 89 81 79 76 54 55 63 45 45 51 41 43 41 37 37 35 32
19 21 19 13 18 27 33 44 47 61 49 38 45 50 69 57 50 51 56 63 70 85 73 108 97 107 101 87 93 76 68 46 64 49 53 52 51 42 40 38 35 37 40
19 24 23 19 16 29 30 52 47 61 43 47 43 52 43 49 54 58 57 62 65 73 73 109 94 117 118 90 89 80 73 55 68 50 51 54 56 49 43 41 40 32 25
Wind_Direction_850mb
152 153 97 70 353 262 241 225 226 216 201 197 201 210 209 209 200 192 183 173 168 168 167 172 165 165 160 154 145 137 138 142 141 137 129 124 121 115 110 106 108 114 115
155 139 74 55 30 294 226 210 214 210 203 196 201 208 212 208 199 191 186 181 176 173 172 171 166 166 162 150 144 134 135 137 134 130 128 128 130 125 119 127 133 116 118
150 144 102 95 169 250 211 193 196 199 200 200 205 209 208 204 204 194 190 185 180 176 175 173 170 168 160 157 150 143 139 137 124 109 103 121 135 135 134 137 123 123 121
159 149 148 127 214 229 187 186 184 185 198 209 208 205 207 204 204 197 194 188 183 180 179 174 167 168 166 159 153 145 141 132 113 116 119 124 128 141 146 141 126 129 128
168 169 189 199 213 221 190 185 188 180 188 206 209 206 199 203 203 196 191 201 184 184 175 170 168 171 171 166 160 148 141 125 114 117 126 117 130 131 133 127 127 123 128
172 174 203 206 198 200 194 192 198 191 188 195 201 205 207 205 199 185 180 257 221 311 168 165 171 174 174 172 168 153 143 125 117 133 149 180 149 143 139 139 134 136 137
181 187 218 209 202 188 203 197 204 204 203 201 201 205 211 209 204 200 202 323 242 271 329 189 189 184 186 180 172 155 148 134 129 142 137 173 164 152 155 156 160 161 158
185 199 230 218 213 202 205 201 206 210 211 211 209 209 210 213 208 200 220 246 192 260 205 176 212 201 189 182 174 164 152 143 114 150 163 185 181 170 175 171 173 166 164
193 215 230 225 220 216 209 210 207 209 217 215 214 219 221 219 216 210 226 197 212 187 192 187 213 205 197 184 177 170 161 155 139 161 145 201 201 190 185 188 191 187 189
204 219 223 231 228 225 218 213 213 210 212 217 213 216 224 226 220 217 225 202 218 216 208 200 216 208 196 183 181 172 167 151 143 165 166 192 186 189 183 196 202 200 205
212 221 220 234 232 230 224 221 216 212 211 214 214 218 225 221 222 223 226 212 221 218 224 232 217 203 190 182 182 176 169 168 173 169 200 223 202 193 187 201 207 211 215
219 218 224 228 236 227 228 226 219 218 212 212 214 216 216 216 219 212 213 213 227 221 225 217 207 201 195 188 184 177 163 179 172 179 220 228 201 174 174 193 197 198 188
228 224 218 222 234 228 229 229 220 215 214 215 214 213 219 214 218 217 212 221 223 217 211 208 201 203 189 179 188 181 171 172 172 188 222 211 167 171 171 174 171 168 170
231 223 222 216 227 233 222 227 230 215 211 215 215 215 223 215 218 220 216 217 214 213 209 206 201 226 187 178 186 179 168 173 172 184 221 188 167 172 163 164 173 169 158
233 227 222 220 222 223 221 232 232 216 225 212 217 223 218 216 223 219 211 220 215 211 211 212 205 199 186 182 182 190 168 176 171 178 176 171 171 179 169 163 171 169 161
234 229 225 221 221 232 228 236 234 225 221 227 213 222 224 219 221 218 218 215 213 217 215 209 219 194 188 179 184 186 177 177 172 175 186 173 175 183 172 170 169 171 168
233 231 230 232 224 226 242 235 235 236 220 221 219 217 224 227 225 218 224 224 223 223 215 237 202 201 185 186 183 169 179 176 172 167 173 179 178 185 177 181 176 177 172
242 242 244 244 234 232 226 249 234 236 234 223 225 226 223 226 230 231 229 235 231 220 220 211 198 191 187 179 185 178 179 177 173 171 170 172 173 180 182 187 184 185 177
247 250 250 246 243 239 232 226 249 241 234 231 221 230 231 227 231 234 236 239 232 224 231 211 190 186 184 186 189 175 178 176 176 174 178 173 168 186 188 188 189 190 177
259 256 253 251 243 237 237 227 226 241 245 230 229 219 233 227 231 233 238 239 235 235 233 225 208 182 193 190 185 175 178 185 175 181 179 174 182 187 186 218 191 187 184
259 262 257 257 256 241 231 224 220 223 231 230 227 220 233 237 230 233 236 238 232 233 226 232 216 191 193 192 186 175 180 181 178 183 177 181 188 187 189 207 196 193 200
267 272 269 254 252 239 228 225 223 220 225 226 223 217 220 229 240 234 227 228 230 225 229 218 215 196 194 192 180 170 165 179 182 187 183 179 193 193 197 201 195 192 225
309 302 291 256 246 235 222 217 218 225 230 224 228 227 226 233 233 232 226 222 226 230 219 230 221 199 197 196 192 179 165 183 180 188 189 178 196 195 199 203 201 201 202
329 331 323 274 246 236 220 223 223 221 215 220 222 226 227 232 231 222 223 225 230 231 227 228 219 201 194 194 190 188 182 182 176 177 190 188 192 196 200 204 205 200 206
335 334 329 306 258 238 218 215 222 216 209 228 221 232 226 229 223 220 225 227 234 229 233 226 220 210 196 196 191 189 187 190 189 183 184 191 194 202 202 200 202 202 213
333 340 332 319 278 243 232 212 219 212 204 211 204 212 213 217 218 220 229 238 236 238 240 217 219 207 194 198 191 191 191 190 181 187 185 190 194 198 201 202 210 209 205